{"data":{"norad_id":53292,"intl_designator":"2022-086BC","name":"STARLINK-4159","alt_names":[],"object_type":"PAYLOAD","status":"ACTIVE","operator":null,"country":"US","launch_date":"2022-07-24","launch_site_code":"AFETR","launch_vehicle":null,"mission":null,"orbit_class":"UNKNOWN","rcs_meters":null,"size_class":null,"mass_kg":null,"dimensions":null,"purposes":["comms"],"wikipedia_slug":null,"has_3d_model":false,"image_url":null,"decayed_at":null,"tle_current":{"epoch":"2026-05-25T04:10:06.848832Z","epoch_age_seconds":70212,"freshness":"FRESH","line1":"1 53292U 22086BC  26145.17369038 -.00001737  00000+0 -91059-4 0  9991","line2":"2 53292  53.2123 200.9551 0001462  82.1293 277.9865 15.08842527212730","mean_motion":15.08842527,"eccentricity":0.0001462,"inclination_deg":53.2123,"raan_deg":200.9551,"arg_perigee_deg":82.1293,"mean_anomaly_deg":277.9865,"bstar":-9.1059e-5,"rev_number":21273,"period_min":95.437394839548,"perigee_km":538.72427196321,"apogee_km":540.74705793044,"semimajor_km":6917.8726649468,"source":"CELESTRAK","updated_at":"2026-05-25T13:38:17.392063Z"}}}